User: anonymous   Login
Location: Theydon Bois
(51.6750°N, 0.1050°E)
Time: 16:07:12
(UTC+01:00)
Language:

Cosmos 1470 - Orbit

View from above orbital plane
View from above orbital plane
View from above satellite
View from above satellite

Ground track
Ground track

The orbit data is extracted from the following two-line orbital elements,

1 14147U 83061A   17295.94543823 +.00001066 +00000-0 +62311-4 0  9997
2 14147 082.4833 273.5063 0015917 175.6395 184.4977 15.10761562623827
Epoch (UTC): 22 October 2017 22:41:25
Eccentricity: 0.0015917
inclination: 82.4833°
perigee height: 523 km
apogee height: 545 km
right ascension of ascending node: 273.5063°
argument of perigee: 175.6395°
revolutions per day: 15.10761562
mean anomaly at epoch: 184.4977°
orbit number at epoch: 62382

The dashed part of the orbit path shows where the satellite is in the earth's shadow,  

DLR